[Iaude] MPEC L97: 2024 LJ2 [a=1.10,e=0.07,i=20.2,H=23.0]
    mpec at cfa.harvard.edu 
    mpec at cfa.harvard.edu
       
    Sun Jun  9 11:57:49 EDT 2024
    
    
  
M.P.E.C. 2024-L97                                  Issued 2024 June 9, 15:56 UT
     The Minor Planet Electronic Circulars contain information on unusual
         minor planets, routine data on comets and natural satellites,
         and occasional editorial announcements.  They are published
    on behalf of Division F of the International Astronomical Union by the
          Minor Planet Center, Smithsonian Astrophysical Observatory,
                          Cambridge, MA 02138, U.S.A.
			  
             Prepared using the Tamkin Foundation Computer Network
                              MPC at CFA.HARVARD.EDU
            URL https://www.minorplanetcenter.net/    ISSN 1523-6714
                                    2024 LJ2                                    
Observations:
     K24L02J* C2024 06 08.39691918 40 54.699+36 22 58.86         20.89wXEL097F51
     K24L02J  C2024 06 08.42243518 40 52.782+36 22 07.42         21.17wXEL097F51
     K24L02J  C2024 06 08.43516918 40 51.783+36 21 41.61         21.03wXEL097F51
     K24L02J  C2024 06 08.54772318 40 42.665+36 17 43.28         20.88GVEL097F51
     K24L02J  C2024 06 08.54854318 40 42.595+36 17 41.51         20.80GVEL097F51
     K24L02J 1C2024 06 08.98001 18 40 21.69 +36 01 25.5          21.0 VXEL097033
     K24L02J 1C2024 06 08.98163 18 40 21.58 +36 01 21.9          21.0 VXEL097033
     K24L02J 1C2024 06 08.98313 18 40 21.45 +36 01 18.7          21.2 VXEL097033
     K24L02J KC2024 06 09.42784 18 39 53.88 +35 44 37.0          20.6 RVEL097291
     K24L02J KC2024 06 09.43383 18 39 53.41 +35 44 22.7          20.5 RVEL097291
     K24L02J 3C2024 06 09.59796318 39 42.518+35 38 00.89         20.75GVEL097T14
     K24L02J 3C2024 06 09.59894218 39 42.434+35 37 58.39         20.82GVEL097T14
     K24L02J 3C2024 06 09.59993118 39 42.354+35 37 55.92         20.78GVEL097T14
Observer details:
033 Karl Schwarzschild Observatory, Tautenburg.  Observers C. Heogner, F.
    Ludwig, M. Hartmann, B. Stecklum.  Measurer B. Stecklum.  1.34-m f/3
    Schmidt + CCD.
291 LPL/Spacewatch II.  Observer R. A. Mastaler.  1.8-m f/2.7 reflector + CCD.
F51 Pan-STARRS 1, Haleakala.  Observers J. Herman, T. Lowe, P. Minguez, A.
    Schultz, I. Smith.  Measurers K. Chambers, T. de Boer, J. Fairlamb, H.
    Gao, M. Huber, C.-C. Lin, E. Magnier, Y. Ramanjooloo, R. Wainscoat, R.
    Weryk.  1.8-m Ritchey-Chretien + CCD.
T14 Canada-France-Hawaii Telescope, Maunakea.  Observers R. Wainscoat, A.
    Acohido, H. Flewelling.  Measurers R. Weryk, R. Wainscoat.  3.6-m f/4.1
    reflector + CCD.
Orbital elements:
2024 LJ2                                                 Earth MOID = 0.0487 AU
Epoch 2024 Mar. 31.0 TT = JDT 2460400.5                 MPC                     
M 225.07450              (2000.0)            P               Q                  
n   0.85106344     Peri.  243.71866     +0.89667707     +0.28205035             
a   1.1027949      Node    98.28719     -0.16772331     +0.92974439             
e   0.0672708      Incl.   20.16965     -0.40968174     +0.23669172             
P   1.16           H   23.03          G   0.15           U   8                  
Residuals in seconds of arc
240608 F51  0.4-  0.4+    240608 033  0.1+  0.1-    240609 T14  0.1-  0.1-
240608 F51  0.1+  0.1-    240608 033  0.2+  0.1-    240609 T14  0.1-  0.1-
240608 F51  0.1+  0.2-    240608 033  0.0   0.0     240609 T14  0.1-  0.1-
240608 F51  0.2+  0.2-    240609 291  0.2-  0.1+
240608 F51  0.2+  0.1-    240609 291  0.2+  0.3+
Ephemeris:
2024 LJ2                 a,e,i = 1.10, 0.07, 20                  q = 1.0286
Date    TT    R. A. (2000) Decl.     Delta      r    Elong.  Phase     V
2024 05 10    18 39 34.8 +40 43 28   0.3031  1.1215   103.8    61.0    22.9
...
2024 05 25    18 45 41.7 +40 36 03   0.2267  1.1053   108.4    60.4    22.2
...
2024 06 02    18 44 43.5 +39 05 27   0.1831  1.0965   112.2    58.9    21.7
...
2024 06 08    18 41 12.2 +36 36 29   0.1499  1.0899   116.4    56.5    21.1
2024 06 09    18 40 19.7 +36 00 59   0.1443  1.0888   117.2    56.0    21.0
2024 06 10    18 39 21.4 +35 21 30   0.1388  1.0877   118.2    55.4    20.9
...
2024 06 16    18 31 13.1 +29 28 14   0.1062  1.0812   125.7    49.7    20.2
...
2024 06 24    18 11 02.9 +11 09 33   0.06760 1.0727   145.4    32.5    18.7
...
2024 07 09    15 53 34.9 -67 08 47   0.06849 1.0580   125.6    51.4    19.2
A. U. Tomatic                (C) Copyright 2024 MPC           M.P.E.C. 2024-L97
    
    
More information about the Iaude
mailing list